Location: Grange Rosano
(44.4500°N, 6.9667°E)
Time: 08:17:54
(UTC+00:00)

Cosmos 1975 Rocket - Pass Details

Date: 26 May 2022
Orbit: 603 x 633 km, 82.5° (Epoch: 01 July)

Event Time Altitude Azimuth Distance (km) Brightness Sun altitude
Exits shadow 00:39:45 48° 131° (SE) 816 3.4 -22.5°
Maximum altitude 00:40:29 55° 94° (E) 756 3.5 -22.5°
Drops below altitude 10° 00:44:51 10° 17° (NNE) 2,018 6.8 -22.2°
Sets 00:47:08 0° 13° (NNE) 2,934 8.0 -22.1°
